• In Hungary
  • List of Countries
  • For 7 days
  • Water Temperature
  • Satellite Maps
  • Weather Map
  • News
  • Weather Widgets
  • user-avatar
    Login

    Hourly Weather Kaufbeuren

    Today, 16 December, Saturday

    Time Temperature Precipitation Wind Pressure Humidity
    00:00 -5°C° 0 mm 2 mps 690 mmHg 88%
    01:00 -5°C° 0 mm 3 mps 690 mmHg 85%
    02:00 -5°C° 0 mm 3 mps 690 mmHg 86%
    03:00 -4°C° 0 mm 2 mps 691 mmHg 86%
    04:00 -4°C° 0 mm 2 mps 691 mmHg 87%
    05:00 -4°C° 0.1 mm 2 mps 691 mmHg 87%
    06:00 -3°C° 0.1 mm 2 mps 692 mmHg 88%
    07:00 -3°C° 0.1 mm 2 mps 692 mmHg 89%
    08:00 -4°C° 0.2 mm 3 mps 693 mmHg 90%
    09:00 -2°C° 0.2 mm 3 mps 693 mmHg 90%
    10:00 -2°C° 0.2 mm 3 mps 694 mmHg 90%
    11:00 -1°C° 0.3 mm 3 mps 694 mmHg 91%
    12:00 -1°C° 0.3 mm 3 mps 694 mmHg 91%
    13:00 0°C° 0.3 mm 3 mps 695 mmHg 92%
    14:00 -1°C° 0.5 mm 3 mps 695 mmHg 92%
    15:00 -1°C° 0.5 mm 3 mps 696 mmHg 93%
    16:00 -1°C° 0.5 mm 2 mps 697 mmHg 94%
    17:00 -1°C° 0.5 mm 2 mps 697 mmHg 94%
    18:00 -2°C° 0.5 mm 2 mps 698 mmHg 94%
    19:00 -2°C° 0.5 mm 2 mps 699 mmHg 94%
    20:00 -2°C° 0.4 mm 2 mps 699 mmHg 94%
    21:00 -2°C° 0.4 mm 2 mps 700 mmHg 95%
    22:00 -2°C° 0.4 mm 2 mps 700 mmHg 95%
    23:00 -2°C° 0.4 mm 3 mps 701 mmHg 95%

    Tomorrow, 17 December, Sunday

    Time Temperature Precipitation Wind Pressure Humidity
    00:00 -2°C° 0.4 mm 3 mps 701 mmHg 95%
    01:00 -2°C° 0.4 mm 3 mps 701 mmHg 95%
    02:00 -4°C° 0.2 mm 3 mps 701 mmHg 95%
    03:00 -4°C° 0.2 mm 3 mps 702 mmHg 95%
    04:00 -4°C° 0.2 mm 3 mps 702 mmHg 95%
    05:00 -4°C° 0.3 mm 3 mps 702 mmHg 95%
    06:00 -4°C° 0.3 mm 3 mps 703 mmHg 95%
    07:00 -3°C° 0.3 mm 2 mps 703 mmHg 95%
    08:00 -4°C° 0.4 mm 3 mps 703 mmHg 94%
    09:00 -4°C° 0.4 mm 3 mps 704 mmHg 94%
    10:00 -3°C° 0.4 mm 4 mps 704 mmHg 93%
    11:00 -3°C° 0.4 mm 4 mps 705 mmHg 92%
    12:00 -3°C° 0.4 mm 4 mps 705 mmHg 92%
    13:00 -3°C° 0.4 mm 4 mps 705 mmHg 91%
    14:00 -3°C° 0.3 mm 4 mps 705 mmHg 92%
    15:00 -4°C° 0.3 mm 3 mps 705 mmHg 92%
    16:00 -4°C° 0.3 mm 3 mps 706 mmHg 93%
    17:00 -4°C° 0.2 mm 3 mps 706 mmHg 93%
    18:00 -4°C° 0.2 mm 3 mps 707 mmHg 93%
    19:00 -5°C° 0.2 mm 3 mps 708 mmHg 94%
    20:00 -5°C° 0.1 mm 3 mps 708 mmHg 94%
    21:00 -5°C° 0.1 mm 3 mps 709 mmHg 94%
    22:00 -5°C° 0.1 mm 3 mps 709 mmHg 93%
    23:00 -6°C° 0 mm 3 mps 709 mmHg 93%

    Day after tomorrow, 18 December, Monday

    Time Temperature Precipitation Wind Pressure Humidity
    00:00 -6°C° 0 mm 3 mps 709 mmHg 92%
    01:00 -7°C° 0 mm 3 mps 709 mmHg 91%
    02:00 -7°C° 0 mm 3 mps 708 mmHg 90%
    03:00 -7°C° 0 mm 3 mps 708 mmHg 88%
    04:00 -7°C° 0 mm 3 mps 707 mmHg 87%
    05:00 -8°C° 0.1 mm 4 mps 707 mmHg 87%
    06:00 -7°C° 0.1 mm 4 mps 706 mmHg 87%
    07:00 -7°C° 0.1 mm 4 mps 706 mmHg 87%
    08:00 -5°C° 1 mm 4 mps 705 mmHg 89%
    09:00 -6°C° 1 mm 5 mps 704 mmHg 92%
    10:00 -5°C° 1 mm 5 mps 704 mmHg 95%
    11:00 -4°C° 1.3 mm 5 mps 703 mmHg 95%
    12:00 -2°C° 1.3 mm 4 mps 703 mmHg 95%
    13:00 -2°C° 1.3 mm 4 mps 703 mmHg 95%
    14:00 -2°C° 1 mm 4 mps 703 mmHg 96%
    15:00 -1°C° 1 mm 3 mps 703 mmHg 97%
    16:00 -1°C° 1 mm 3 mps 704 mmHg 97%
    17:00 -1°C° 0.4 mm 3 mps 704 mmHg 97%
    18:00 -1°C° 0.4 mm 2 mps 705 mmHg 97%
    19:00 -1°C° 0.4 mm 2 mps 706 mmHg 97%
    20:00 -1°C° 0.2 mm 2 mps 707 mmHg 97%
    21:00 -2°C° 0.2 mm 2 mps 708 mmHg 97%
    22:00 0°C° 0.2 mm 1 mps 708 mmHg 98%
    23:00 0°C° 0.1 mm 1 mps 709 mmHg 97%

    19 December, Tuesday

    Time Temperature Precipitation Wind Pressure Humidity
    00:00 0°C° 0.1 mm 1 mps 709 mmHg 97%
    01:00 -1°C° 0.1 mm 1 mps 710 mmHg 97%
    02:00 -1°C° 0.1 mm 1 mps 710 mmHg 97%
    03:00 -3°C° 0.1 mm 2 mps 710 mmHg 96%
    04:00 -3°C° 0.1 mm 2 mps 710 mmHg 96%
    05:00 -4°C° 0.1 mm 2 mps 711 mmHg 95%
    06:00 -4°C° 0.1 mm 2 mps 711 mmHg 95%
    07:00 -4°C° 0.1 mm 2 mps 711 mmHg 94%
    08:00 -3°C° 0.1 mm 2 mps 712 mmHg 94%
    09:00 -3°C° 0.1 mm 2 mps 712 mmHg 94%
    10:00 -3°C° 0.1 mm 2 mps 712 mmHg 94%
    11:00 0°C° 0.1 mm 1 mps 712 mmHg 95%
    12:00 +1°C° 0.1 mm 1 mps 712 mmHg 96%
    13:00 +1°C° 0.1 mm 1 mps 712 mmHg 97%
    14:00 +1°C° 0.1 mm 1 mps 712 mmHg 97%
    15:00 +1°C° 0.1 mm 1 mps 712 mmHg 98%
    16:00 +1°C° 0.1 mm 1 mps 712 mmHg 98%
    17:00 0°C° 0.1 mm 1 mps 713 mmHg 98%
    18:00 -1°C° 0.1 mm 0 mps 713 mmHg 97%
    19:00 -1°C° 0.1 mm 0 mps 714 mmHg 97%
    20:00 -2°C° 0 mm 0 mps 714 mmHg 96%
    21:00 -2°C° 0 mm 0 mps 714 mmHg 96%
    22:00 -2°C° 0 mm 0 mps 714 mmHg 95%
    23:00 -3°C° 0 mm 0 mps 714 mmHg 95%

    20 December, Wednesday

    Time Temperature Precipitation Wind Pressure Humidity
    00:00 -3°C° 0 mm 1 mps 714 mmHg 94%
    01:00 -4°C° 0 mm 1 mps 714 mmHg 93%
    02:00 -4°C° 0 mm 1 mps 714 mmHg 92%
    03:00 -6°C° 0 mm 1 mps 714 mmHg 92%
    04:00 -6°C° 0 mm 1 mps 714 mmHg 91%
    05:00 -6°C° 0 mm 1 mps 714 mmHg 90%
    06:00 -6°C° 0 mm 1 mps 714 mmHg 90%
    07:00 -6°C° 0 mm 1 mps 714 mmHg 89%
    08:00 -4°C° 0 mm 1 mps 715 mmHg 89%
    09:00 -3°C° 0 mm 1 mps 715 mmHg 90%
    10:00 -4°C° 0 mm 2 mps 715 mmHg 90%
    11:00 -3°C° 0 mm 2 mps 715 mmHg 91%
    12:00 +1°C° 0 mm 1 mps 715 mmHg 91%
    13:00 +2°C° 0 mm 1 mps 714 mmHg 92%
    14:00 +2°C° 0.1 mm 1 mps 714 mmHg 92%
    15:00 +2°C° 0.1 mm 1 mps 714 mmHg 93%
    16:00 +2°C° 0.1 mm 1 mps 714 mmHg 93%
    17:00 -1°C° 0.1 mm 2 mps 715 mmHg 92%
    18:00 -1°C° 0.1 mm 2 mps 715 mmHg 92%
    19:00 -1°C° 0.1 mm 2 mps 715 mmHg 91%
    20:00 -1°C° 0.1 mm 2 mps 715 mmHg 91%
    21:00 +1°C° 0.1 mm 2 mps 715 mmHg 91%
    22:00 0°C° 0.1 mm 3 mps 716 mmHg 91%
    23:00 0°C° 0.1 mm 3 mps 716 mmHg 92%

    21 December, Thursday

    Time Temperature Precipitation Wind Pressure Humidity
    00:00 0°C° 0.1 mm 3 mps 715 mmHg 92%
    01:00 +1°C° 0.1 mm 3 mps 715 mmHg 93%
    02:00 +1°C° 0.1 mm 3 mps 715 mmHg 93%
    03:00 +1°C° 0.1 mm 3 mps 715 mmHg 93%
    04:00 +1°C° 0.1 mm 3 mps 715 mmHg 93%
    05:00 +1°C° 0.1 mm 3 mps 715 mmHg 94%
    06:00 +1°C° 0.1 mm 3 mps 715 mmHg 94%
    07:00 +1°C° 0.1 mm 3 mps 715 mmHg 95%
    08:00 +1°C° 0.2 mm 3 mps 715 mmHg 96%
    09:00 +1°C° 0.2 mm 3 mps 715 mmHg 97%
    10:00 +1°C° 0.2 mm 3 mps 715 mmHg 98%
    11:00 +2°C° 0.2 mm 3 mps 715 mmHg 98%
    12:00 +2°C° 0.2 mm 3 mps 715 mmHg 98%
    13:00 +1°C° 0.2 mm 4 mps 714 mmHg 98%
    14:00 +1°C° 0.1 mm 4 mps 714 mmHg 98%
    15:00 +1°C° 0.1 mm 4 mps 714 mmHg 98%
    16:00 +1°C° 0.1 mm 4 mps 714 mmHg 98%
    17:00 +1°C° 0 mm 4 mps 714 mmHg 96%
    18:00 +1°C° 0 mm 4 mps 714 mmHg 95%
    19:00 +1°C° 0 mm 4 mps 715 mmHg 94%
    20:00 +1°C° 0.2 mm 4 mps 715 mmHg 95%
    21:00 +1°C° 0.2 mm 4 mps 715 mmHg 95%
    22:00 +1°C° 0.2 mm 4 mps 715 mmHg 96%
    23:00 +2°C° 0.2 mm 3 mps 715 mmHg 97%
    Show more